OBJECT F, 60750

Orbit data source: Space-Track

You're viewing an Uncataloged Satellite

Recently launched and/or uncataloged satellites may have evolving metadata. Metadata may include but not limited to: Owner, Maufacturer, Bus, Motor, and Mission.

OBJECT F, 60750 is a Chinese satellite in SSO that was launched on Thu, 29 Aug 2024 UTC via a GUSHENXING 1 launch vehicle from the Yellow Sea Launch Area, China (YSLA). Unknown objects in Earth's orbit typically refer to objects detected orbiting the Earth but have not yet been identified or cataloged. These objects could be anything from previously untracked satellites, spent rocket stages, debris from satellite collisions, or even natural meteoroids temporarily captured by Earth's gravity.

Loading next visibility...
Identifier
60750, 2024-153F
Orbit
SSO
Country
Flag of CNCN / PRC
Related business
None
Manufacturer
Unknown
Mission
Operational Commercial Imaging
Bus & Motor
Unknown
Mass
Unknown
Launch date (UTC)
2024-08-29 (2 years ago)
Launch vehicle
GUSHENXING 1
Launch site
Yellow Sea Launch Area, China (YSLA)
Object type
Unknown
Shape & HBR
Box + 1 Pan, 2.5 m
Radar Cross Section
5.339 m², Medium (>0.1 m² and < 1m²)

Expand to show TLE details & history
Last TLE update: 4 hours ago

TLE from 4 hours ago
0 OBJECT F
1 60750U 24153F   26095.56792497  .00021263  00000-0  87705-3 0  9998
2 60750  97.6610 230.4173 0006869 136.8045 223.3731 15.24062017 88730
Epoch: 2026-04-05T13:37Z
TLE epoch observation values (Epoch: 2026-04-05T13:37:48.717Z)
Latitude
-0.00006°
Longitude
-167.90716°
Altitude
500.125 km
Speed
7.612 km/s
True Right ascension
15h 21m 40s
True Declination
0° 00' 00"
Sunlit
Object was in full shadow at epoch
Visualization orbit readout
Latitude
Unknown
Longitude
Unknown
Altitude
Unknown
Speed
Unknown
Apparent Right ascension
Unknown
Apparent Declination
Unknown
Sunlit
N/A
Visualization observer readout
Local Sidereal Time
00:00:30
Azimuth
Unknown
Elevation
Unknown
Doppler factor
Unknown
Orbital elements
Apogee altitude
495.293 km
Perigee altitude
485.857 km
Semi-major axis
6,868.712 km
Eccentricity
0.00069
Inclination
97.661°
RAAN
230.4173°
Arg. of periapsis
136.8045°
True anomaly
223.31908°
Mean anomaly
223.3731°
Eccentric anomaly
223.34609°
Mean motion
3.81268 °/min
Orbital period
94.42 mins
BSTAR
0.00087705
Loading maneuver chart data...
Computing Atmospheric mass density...
Loading historical data...
Loading historical data...
Loading historical data...
Loading historical data...
Loading historical data...
Loading historical data...
Loading historical data...

Documentation

Showing up to 5 results
|